Regional Weather Roundup
Issued by NWS San Angelo, TX

Home | Current Version | Previous Version | Text Only | Print | Product List | Glossary On
Versions: 1 2 3 4 5 6 7 8 9 10 11 12 13 14 15 16 17 18 19 20 21 22 23 24 25 26 27 28 29 30 31 32 33 34 35 36 37 38 39 40 41 42 43 44 45 46 47 48 49 50
000
ASUS44 KSJT 212210
RWRSJT
WEST CENTRAL TEXAS REGIONAL WEATHER ROUNDUP
NATIONAL WEATHER SERVICE SAN ANGELO TX
500 PM CDT SUN SEP 21 2014

NOTE: "FAIR" INDICATES FEW OR NO CLOUDS BELOW 12,000 FEET WITH NO
SIGNIFICANT WEATHER AND/OR OBSTRUCTIONS TO VISIBILITY.

TXZ049-054-064>066-071>073-076>078-098-099-113-114-127-128-139-140-
154-155-168>170-212300
...LOCATIONS ACROSS WEST CENTRAL TEXAS...

CITY           SKY/WX    TMP DP  RH WIND       PRES   REMARKS
SAN ANGELO     CLOUDY    83  67  58 E10       30.06S
ABILENE        PTSUNNY   91  61  36 E12       30.06F
DYESS AFB      MOSUNNY   87  54  32 E10       30.06S
JUNCTION       CLOUDY    87  61  41 E10       30.04S
SWEETWATER     CLOUDY    80  66  62 CALM      30.14S
BROWNWOOD      MOSUNNY   86  64  48 SE7       30.05S
COLEMAN        PTCLDY    85  64  48 SE7       30.06F
SONORA         MOSUNNY   86  63  45 E8G15     30.09S
OZONA          FAIR      84  61  45 E13       30.09S
BRADY          MOSUNNY   88  63  42 VRB7      30.06S
$$

TEXAS PANHANDLE/OKLAHOMA PANHANDLE

CITY           SKY/WX    TMP DP  RH WIND       PRES   REMARKS
AMARILLO       LGT RAIN  66  62  87 NE13      30.21F
BORGER         SUNNY     79  63  57 NE16G24   30.19S
CANADIAN       MOSUNNY   76  61  58 E10G20    30.19S
DALHART        MOSUNNY   79  60  52 E15       30.25S
DUMAS          PTCLDY    79  63  57 E14       30.22F
GUYMON         NOT AVBL
HEREFORD       RAIN      75  66  74 N9G22     30.20R
PAMPA          CLEAR     75  61  61 NE16      30.21S
PERRYTON       SUNNY     83  47  28 E13G20    30.21S
$$

SOUTHERN PANHANDLE/SOUTH PLAINS/ROLLING PLAINS

CITY           SKY/WX    TMP DP  RH WIND       PRES   REMARKS
LUBBOCK        LGT RAIN  68  65  90 S9        30.19F
SNYDER         CLOUDY    75  71  86 NW6       30.13S
CHILDRESS      MOSUNNY   89  63  41 E8        30.08F
SEMINOLE       CLOUDY    70  68  92 CALM      30.18F
$$

PERMIAN BASIN

CITY           SKY/WX    TMP DP  RH WIND       PRES   REMARKS
MIDLAND        CLOUDY    71  69  93 NE14      30.13S
ODESSA         RAIN      70  65  84 E10       30.14S
WINK           PTSUNNY   76  69  79 E21       30.08F
$$

FAR WEST/SOUTHWEST MOUNTAINS/TRANS PECOS

CITY           SKY/WX    TMP DP  RH WIND       PRES   REMARKS
ALPINE         CLOUDY    75  64  69 SE7       30.20S
DRYDEN           N/A     90  67  46 E13       30.02S
EL PASO        PTSUNNY   86  61  42 NE15      30.06F
FORT STOCKTON  PTSUNNY   81  67  62 E12       30.07F
GUADALUPE PASS PTSUNNY   71  64  78 NE26        N/A
MARFA          MOSUNNY   81  64  57 SE9       30.18S
PECOS          MOCLDY    84  65  53 E15       30.05F
$$

DALLAS/FORT WORTH METROPLEX

CITY           SKY/WX    TMP DP  RH WIND       PRES   REMARKS
DFW AIRPORT    PTSUNNY   93  60  33 SE6       30.00F
FTW MEACHAM    MOSUNNY   94  59  31 SE6       30.00F
DAL-EXECUTIVE  SUNNY     95  59  30 CALM      30.00F
GRAND PRAIRIE  SUNNY     93  55  27 MISG      30.02F
ADDISON        NOT AVBL
MESQUITE       CLEAR     90  57  33 NW6       30.00F
LANCASTER      CLEAR     92  58  31 E3        30.01F
$$

NORTH CENTRAL TEXAS

CITY           SKY/WX    TMP DP  RH WIND       PRES   REMARKS
SHRMAN/DENISON CLEAR     90  62  38 N3        30.03F
GAINESVILLE    SUNNY     89  62  39 E6        30.05F
BRIDGEPORT     CLEAR     92  56  29 E5        30.04F
DENTON         SUNNY     92  61  35 E8        30.01F
WAXAHACHIE     CLEAR     92  54  27 CALM      30.02F
GRANBURY       CLEAR     94  58  29 SE6       30.02F
$$

WESTERN NORTH TEXAS

CITY           SKY/WX    TMP DP  RH WIND       PRES   REMARKS
WICHITA FALLS  SUNNY     92  61  35 SE6       30.02F
VERNON           N/A    N/A N/A N/A E6        30.05F
BRECKENRIDGE   CLEAR     93  55  27 E5        30.03S
COMANCHE       SUNNY     91  58  33 E5        30.05S
$$

CENTRAL AND SOUTH CENTRAL TEXAS

CITY           SKY/WX    TMP DP  RH WIND       PRES   REMARKS
AUSTIN/BERGSTM MOSUNNY   90  65  43 E14       29.98F
WACO           SUNNY     92  61  35 E6        30.00F
HILLSBORO      PTCLDY    93  57  29 NE6       30.01S
TEMPLE         SUNNY     90  61  37 E9        30.01S
KILLEEN-GRAY   PTSUNNY   90  61  37 E8        30.02S
FORT HOOD      MOSUNNY   93  63  36 NE7       30.02F
GEORGETOWN     MOSUNNY   90  64  43 E9        30.01F
LAGO VISTA     FAIR      89  63  41 E8G18     30.03S
SAN MARCOS     MOSUNNY   91  64  40 E10       29.99S
NEW BRAUNFELS  MOSUNNY   91  66  43 E10       29.97F
RANDOLPH AFB   PTSUNNY   90  66  45 E10G18    29.98F
SAN ANTONIO    MOSUNNY   91  64  40 E14       29.98F
STINSON        MOSUNNY   94  62  34 E13       29.95S
PLEASANTON     NOT AVBL
LA GRANGE      MOSUNNY   90  68  47 E9        29.97S
GIDDINGS       CLEAR     89  64  43 NE6       30.03S
$$

EAST TEXAS

CITY           SKY/WX    TMP DP  RH WIND       PRES   REMARKS
PARIS          SUNNY     90  64  43 N6        30.02F
CLARKSVILLE    NOT AVBL
TYLER          SUNNY     91  64  40 CALM      30.01F
LONGVIEW       SUNNY     93  61  34 NW7       29.98F
PALESTINE      PTCLDY    92  63  38 E5        30.01F
NACOGDOCHES    SUNNY     90  64  43 CALM      29.99F
$$

TEXAS HILL COUNTRY AND EDWARDS PLATEAU

CITY           SKY/WX    TMP DP  RH WIND       PRES   REMARKS
LLANO          PTCLDY    91  64  40 SE7       30.05S
HORSESHOE BAY  FAIR      88  62  41 E7        30.02S
KERRVILLE      MOSUNNY   88  65  46 SE10      30.04S
FREDERICKSBRG  MOSUNNY   85  63  47 E5        30.05S
ROCKSPRINGS    MOCLDY    82  64  54 E6        30.07S
HONDO          MOSUNNY   94  63  35 E15G23    29.98F
UVALDE         CLOUDY    89  66  46 SE12      29.98S
DEL RIO        CLOUDY    88  69  53 NE8       29.96S
$$

SOUTHEAST TEXAS

CITY           SKY/WX    TMP DP  RH WIND       PRES   REMARKS
COLLEGE STN    MOSUNNY   89  65  44 E9        29.99F
CALDWELL       PTCLDY    88  63  42 E7        30.03S
CROCKETT       CLEAR     93  68  43 E3        30.02F
BRENHAM        SUNNY     91  65  41 E8        29.99F
HUNTSVILLE     SUNNY     91  64  40 VRB3      30.00F
CONROE         MOSUNNY   89  65  44 VRB6      29.99F
HOUSTON BUSH   MOSUNNY   89  69  51 E6        29.98S
HOUSTON HOBBY  MOSUNNY   89  68  49 NE9       29.97S
PERLAND        SUNNY     90  68  48 E12       29.98F
WHARTON        CLEAR     89  66  46 NE12      29.97F
$$

THE UPPER TEXAS COAST

CITY           SKY/WX    TMP DP  RH WIND       PRES   REMARKS
ORANGE         PTCLDY    88  67  49 N5        29.98F
PORT ARTHUR    MOSUNNY   90  69  50 NE9       29.97F
GALVESTON      SUNNY     85  70  60 E12       29.97F
ANGLETON       SUNNY     86  68  54 E12       29.97F
BAY CITY       CLEAR     89  70  53 E10G16    29.96S
$$

TEXAS COASTAL BEND, RIO GRANDE PLAINS DEEP SOUTH TEXAS

CITY           SKY/WX    TMP DP  RH WIND       PRES   REMARKS
VICTORIA       SUNNY     92  71  50 E12       29.95F
BEEVILLE       FAIR      92  67  43 MISG      29.94S
ROCKPORT       SUNNY     87  72  60 E16       29.93F
PORT ARANSAS   CLEAR     85  73  66 E16G23    29.93F
PORT LAVACA    CLEAR     86  74  67 E16       29.95S
CORPUS CHRISTI MOSUNNY   85  74  69 E16G24    29.93F
KINGSVILLE NAS MOSUNNY   85  76  74 E21       29.92F
COTULLA        LGT RAIN  80  74  81 E3        29.97S
LAREDO         PTSUNNY   86  74  67 E10       29.96F
BROWNSVILLE    MOSUNNY   86  76  71 E8        29.89F
PORT ISABEL    MOSUNNY   86  77  74 E15       29.88F
HEBBRONVILLE     N/A     81  73  76 E12       29.95R
MCALLEN        MOSUNNY   87  76  69 NE9       29.90S
WESLACO        PTSUNNY   88  73  61 NE12      29.89R
FALFURRIAS     MOCLDY   N/A N/A N/A E14G20    29.91F
EDINBURG       PTCLDY    87  74  64 E13       29.90S
$$


USA.gov is the U.S. government's official web portal to all federal, state and local government web resources and services.